User: anonymous   Login
Location: NC_16_and_73
(35.4490°N, 81.0150°W)
Time: 14:43:52
(UTC-04:00)
Language:

Cosmos-2242 - Orbit

View from above orbital plane
View from above orbital plane
View from above satellite
View from above satellite

Ground track
Ground track

The orbit data is extracted from the following two-line orbital elements,

1 22626U 93024A   18140.90404521 +.00000197 +00000-0 +18692-4 0  9992
2 22626 082.5225 083.4076 0020644 080.4817 279.8732 14.87800982356061
Epoch (UTC): 20 May 2018 21:41:49
Eccentricity: 0.0020644
inclination: 82.5225°
perigee height: 590 km
apogee height: 619 km
right ascension of ascending node: 83.4076°
argument of perigee: 80.4817°
revolutions per day: 14.87800982
mean anomaly at epoch: 279.8732°
orbit number at epoch: 35606

The dashed part of the orbit path shows where the satellite is in the earth's shadow,  

DLR